Buffalo, NY

12:41 PM EDT on June 23, 2017 (GMT -0400)
Buffalo Niagara International

Weather History for KBUF - September, 2013

Change the Weather History Date:

Wednesday, September 11, 2013

  Actual Average Record
Temperature  
Mean Temperature 77 °F 64 °F  
Max Temperature 86 °F 73 °F 87 °F (1947)
Min Temperature 68 °F 55 °F 39 °F (1967)
Degree Days  
Heating Degree Days 0 3  
Month to date heating degree days 30 24  
Since 1 July heating degree days 46 51  
Cooling Degree Days 12 2  
Month to date cooling degree days 41 31  
Year to date cooling degree days 593 518  
Growing Degree Days 28 (Base 50)    
Moisture  
Dew Point 70 °F    
Average Humidity 70    
Maximum Humidity 82    
Minimum Humidity 57    
Precipitation  
Precipitation 0.12 in 0.12 in 1.97 in (1968)
Month to date precipitation 0.48 1.27  
Year to date precipitation 28.11 26.43  
Snow  
Snow 0.00 in 0.00 in T in (2007)
Month to date snowfall 0.0 0.0  
Since 1 July snowfall 0.0 0.0  
Since 1 September snowfall 0.0 0.0  
Snow Depth 0.00 in    
Sea Level Pressure  
Sea Level Pressure 29.98 in    
Wind  
Wind Speed 13 mph (SW)    
Max Wind Speed 28 mph    
Max Gust Speed 39 mph    
Visibility 8 miles    
Events Rain , Thunderstorm    
T = Trace of Precipitation, MM = Missing Value Source: NWS Daily Summary

Daily Weather History Graph

Daily Weather History Graph

Search for Another Location

Airport or City:

Trip Planner

Search our weather history database for the weather conditions in past years. The results will help you decide how hot, cold, wet, or windy it might be!

Date:

Astronomy

Sep. 11, 2013 Rise Set
Actual Time 6:50 AM EDT 7:31 PM EDT
Civil Twilight 6:21 AM EDT 8:00 PM EDT
Nautical Twilight 5:47 AM EDT 8:33 PM EDT
Astronomical Twilight 5:12 AM EDT 9:08 PM EDT
Moon 1:26 PM EDT (9/11) 11:16 PM EDT (9/11)
Length of Visible Light 13h 38m
Length of Day
12h 41m
Waxing Crescent, 38% of the Moon is Illuminated
Sep 11
Waxing Crescent
Sep 12
First Quarter
Sep 19
Full
Sep 26
Last Quarter
Oct 4
New

Hourly Weather History & Observations

Time (EDT) Temp. Heat Index Dew Point Humidity Pressure Visibility Wind Dir Wind Speed Gust Speed Precip Events Conditions
12:54 AM 78.1 °F - 71.1 °F 79% 30.01 in 9.0 mi SW 8.1 mph - N/A   Clear
1:54 AM 80.1 °F 84.2 °F 73.0 °F 79% 30.01 in 8.0 mi SW 10.4 mph - N/A   Clear
2:54 AM 80.1 °F 84.2 °F 73.0 °F 79% 30.00 in 8.0 mi SW 10.4 mph - N/A   Partly Cloudy
3:54 AM 79.0 °F - 72.0 °F 79% 30.00 in 8.0 mi SW 9.2 mph - N/A   Partly Cloudy
4:54 AM 80.1 °F 83.8 °F 72.0 °F 76% 30.01 in 8.0 mi SW 10.4 mph - N/A   Scattered Clouds
5:54 AM 80.1 °F 83.6 °F 71.1 °F 74% 30.02 in 8.0 mi SW 12.7 mph - N/A   Partly Cloudy
6:54 AM 79.0 °F - 71.1 °F 77% 30.03 in 7.0 mi SSW 12.7 mph - N/A   Scattered Clouds
7:54 AM 79.0 °F - 71.1 °F 77% 30.03 in 7.0 mi SW 9.2 mph - N/A   Partly Cloudy
8:54 AM 81.0 °F 84.9 °F 71.1 °F 72% 30.03 in 8.0 mi SW 15.0 mph 24.2 mph N/A   Scattered Clouds
9:54 AM 82.9 °F 87.5 °F 71.1 °F 67% 30.03 in 8.0 mi SW 18.4 mph 27.6 mph N/A   Scattered Clouds
10:54 AM 82.9 °F 87.0 °F 70.0 °F 65% 30.02 in 8.0 mi SW 20.7 mph 31.1 mph N/A   Scattered Clouds
11:54 AM 84.0 °F 88.4 °F 70.0 °F 63% 30.03 in 9.0 mi WSW 18.4 mph 25.3 mph N/A   Scattered Clouds
12:54 PM 82.9 °F 87.0 °F 70.0 °F 65% 30.02 in 8.0 mi WSW 17.3 mph 26.5 mph N/A   Mostly Cloudy
1:54 PM 84.9 °F 90.1 °F 71.1 °F 63% 30.00 in 8.0 mi WSW 16.1 mph 26.5 mph N/A   Mostly Cloudy
2:54 PM 86.0 °F 90.1 °F 69.1 °F 57% 29.97 in 9.0 mi WSW 17.3 mph 27.6 mph N/A   Scattered Clouds
3:54 PM 84.9 °F 89.4 °F 70.0 °F 61% 29.95 in 9.0 mi SW 20.7 mph 28.8 mph N/A   Scattered Clouds
4:54 PM 84.0 °F 88.4 °F 70.0 °F 63% 29.92 in 7.0 mi WSW 16.1 mph 24.2 mph N/A   Scattered Clouds
5:54 PM 84.9 °F 89.4 °F 70.0 °F 61% 29.94 in 8.0 mi WSW 13.8 mph 21.9 mph N/A   Mostly Cloudy
6:54 PM 82.0 °F 84.9 °F 68.0 °F 62% 29.95 in 9.0 mi West 10.4 mph - N/A   Scattered Clouds
7:54 PM 77.0 °F - 69.1 °F 76% 29.92 in 8.0 mi South 10.4 mph - N/A   Scattered Clouds
8:54 PM 77.0 °F - 68.0 °F 74% 29.94 in 8.0 mi SSW 8.1 mph - N/A   Scattered Clouds
9:54 PM 77.0 °F - 68.0 °F 74% 29.95 in 9.0 mi SSW 9.2 mph - N/A   Mostly Cloudy
10:54 PM 75.9 °F - 69.1 °F 79% 29.91 in 9.0 mi SSW 8.1 mph - N/A   Mostly Cloudy
11:14 PM 75.2 °F - 69.8 °F 83% 29.93 in 10.0 mi SSW 8.1 mph - N/A Thunderstorm Thunderstorm
11:35 PM 71.6 °F - 64.4 °F 78% 29.97 in 2.5 mi WNW 16.1 mph 28.8 mph 0.00 in Rain , Thunderstorm Light Thunderstorms and Rain
11:46 PM 69.8 °F - 64.4 °F 83% 29.96 in 4.0 mi West 9.2 mph 26.5 mph 0.09 in Rain , Thunderstorm Light Thunderstorms and Rain
11:54 PM 69.1 °F - 66.0 °F 90% 29.96 in 6.0 mi West 9.2 mph - 0.11 in Rain , Thunderstorm Light Thunderstorms and Rain